Regional Weather Roundup
Issued by NWS Spokane, WA

Home | Current Version | Previous Version | Text Only | Print | Product List | Glossary On
Versions: 1 2 3 4 5 6 7 8 9 10 11 12 13 14 15 16 17 18 19 20 21 22 23 24 25 26 27 28 29 30 31 32 33 34 35 36 37 38 39 40 41 42 43 44 45 46 47 48 49 50
800
NZUS01 KOTX 282010
RWROTX
EASTERN WASHINGTON/NORTHERN IDAHO ROUNDUP
NATIONAL WEATHER SERVICE, SPOKANE WA
100 PM PDT THU JUL 28 2016

Note: "fair" indicated few or no clouds below 12,000 feet with no
significant weather and/or obstructions to visibility.

...NORTHEAST WASHINGTON AND NORTHERN IDAHO PANHANDLE...

CITY           SKY/WX    TMP DP  RH WIND       PRES   REMARKS
SPOKANE INTL   MOSUNNY   91  47  21 N8        30.09F
SPOKANE DOWNTO MOSUNNY   92  51  24 S7        30.07F
COEUR D ALENE  SUNNY     88  55  33 N6        30.06F
DEER PARK      SUNNY     89  48  24 VRB7      30.09F
SANDPOINT      SUNNY     82  55  39 E3        30.10F
BONNERS FERRY    N/A     82  55  39 CALM      30.11S

...SOUTHEAST WASHINGTON AND SOUTHERN IDAHO PANHANDLE...

CITY           SKY/WX    TMP DP  RH WIND       PRES   REMARKS
WALLA WALLA    SUNNY     93  52  24 W6        30.01F HX  90
PULLMAN/MOSCOW SUNNY     91  48  22 W6        30.11F
LEWISTON       SUNNY     96  50  20 NW6       30.02F HX  93
LOWELL           N/A     94  55  26 S5        30.01F HX  92

...COLUMBIA BASIN...

CITY           SKY/WX    TMP DP  RH WIND       PRES   REMARKS
EPHRATA        SUNNY     95  49  20 VRB5      30.01F HX  92
MOSES LAKE     SUNNY     96  52  22 SW7       30.02F HX  93
TRI CITIES     SUNNY     94  56  27 N7        29.98F HX  92
HERMISTON      SUNNY     95  56  26 VRB3      29.98F HX  93
PENDLETON      SUNNY     93  50  23 NE7G16    30.03F HX  90

...EAST SLOPES CASCADES...

CITY           SKY/WX    TMP DP  RH WIND       PRES   REMARKS
THE DALLES     SUNNY     93  55  27 N7        29.96F HX  91
YAKIMA         SUNNY     98  50  19 VRB6      30.01F HX  95
ELLENSBURG     SUNNY     93  55  27 S6        30.05F HX  91
STAMPEDE PASS  SUNNY     75  53  46 VRB6      30.23F
WENATCHEE      SUNNY     92  54  27 CALM      30.01F HX  90
OMAK           SUNNY     95  48  20 N7        30.02F HX  91

...SOUTHERN BRITISH COLUMBIA...

CITY           SKY/WX    TMP DP  RH WIND       PRES   REMARKS
PENTICTON      MOSUNNY   86  55  35 N9        30.04F
CASTLEGAR      MOSUNNY   82  57  42 N6        30.06F
CRANBROOK      MOSUNNY   82  48  30 CALM      30.13F

...WESTERN MONTANA...

CITY           SKY/WX    TMP DP  RH WIND       PRES   REMARKS
MISSOULA       SUNNY     89  42  19 N9        30.12F

...NEIGHBORING CITIES...

CITY           SKY/WX    TMP DP  RH WIND       PRES   REMARKS
SEATTLE        SUNNY     81  60  48 NW12      30.12F
CALGARY        PTSUNNY   75  57  53 SE5       30.14F



USA.gov is the U.S. government's official web portal to all federal, state and local government web resources and services.